Year,Month,Day,Hour,Minute,Value (Times are PST for temperature in C)
2016,08,26,00,00,19.70
2016,08,26,00,01,19.60
2016,08,26,00,02,19.60
2016,08,26,00,03,19.60
2016,08,26,00,04,19.60
2016,08,26,00,05,19.60
2016,08,26,00,06,19.50
2016,08,26,00,07,19.50
2016,08,26,00,08,19.50
2016,08,26,00,09,19.50
2016,08,26,00,10,19.40
2016,08,26,00,11,19.40
2016,08,26,00,12,19.40
2016,08,26,00,13,19.40
2016,08,26,00,14,19.40
2016,08,26,00,15,19.40
2016,08,26,00,16,19.30
2016,08,26,00,17,19.30
2016,08,26,00,18,19.30
2016,08,26,00,19,19.30
2016,08,26,00,20,19.20
2016,08,26,00,21,19.20
2016,08,26,00,22,19.20
2016,08,26,00,23,19.20
2016,08,26,00,24,19.10
2016,08,26,00,25,19.10
2016,08,26,00,26,19.10
2016,08,26,00,27,19.10
2016,08,26,00,28,19.00
2016,08,26,00,29,19.00
2016,08,26,00,30,18.90
2016,08,26,00,31,18.90
2016,08,26,00,32,18.90
2016,08,26,00,33,18.90
2016,08,26,00,34,18.90
2016,08,26,00,35,18.80
2016,08,26,00,36,18.80
2016,08,26,00,37,18.80
2016,08,26,00,38,18.80
2016,08,26,00,39,18.70
2016,08,26,00,40,18.70
2016,08,26,00,41,18.70
2016,08,26,00,42,18.70
2016,08,26,00,43,18.60
2016,08,26,00,44,18.60
2016,08,26,00,45,18.60
2016,08,26,00,46,18.60
2016,08,26,00,47,18.60
2016,08,26,00,48,18.50
2016,08,26,00,49,18.50
2016,08,26,00,50,18.50
2016,08,26,00,51,18.50
2016,08,26,00,52,18.50
2016,08,26,00,53,18.40
2016,08,26,00,54,18.40
2016,08,26,00,55,18.40
2016,08,26,00,56,18.40
2016,08,26,00,57,18.40
2016,08,26,00,58,18.30
2016,08,26,00,59,18.30
2016,08,26,01,00,18.30
2016,08,26,01,01,18.30
2016,08,26,01,02,18.30
2016,08,26,01,03,18.20
2016,08,26,01,04,18.20
2016,08,26,01,05,18.20
2016,08,26,01,06,18.20
2016,08,26,01,07,18.10
2016,08,26,01,08,18.10
2016,08,26,01,09,18.10
2016,08,26,01,10,18.10
2016,08,26,01,11,18.10
2016,08,26,01,12,18.00
2016,08,26,01,13,18.00
2016,08,26,01,14,18.00
2016,08,26,01,15,17.90
2016,08,26,01,16,17.90
2016,08,26,01,17,17.90
2016,08,26,01,18,17.90
2016,08,26,01,19,17.90
2016,08,26,01,20,17.90
2016,08,26,01,21,17.90
2016,08,26,01,22,17.90
2016,08,26,01,23,17.90
2016,08,26,01,24,17.90
2016,08,26,01,25,17.90
2016,08,26,01,26,17.90
2016,08,26,01,27,17.90
2016,08,26,01,28,17.80
2016,08,26,01,29,17.80
2016,08,26,01,30,17.80
2016,08,26,01,31,17.80
2016,08,26,01,32,17.70
2016,08,26,01,33,17.70
2016,08,26,01,34,17.70
2016,08,26,01,35,17.70
2016,08,26,01,36,17.70
2016,08,26,01,37,17.70
2016,08,26,01,38,17.70
2016,08,26,01,39,17.70
2016,08,26,01,40,17.70
2016,08,26,01,41,17.70
2016,08,26,01,42,17.70
2016,08,26,01,43,17.70
2016,08,26,01,44,17.60
2016,08,26,01,45,17.60
2016,08,26,01,46,17.60
2016,08,26,01,47,17.60
2016,08,26,01,48,17.60
2016,08,26,01,49,17.50
2016,08,26,01,50,17.50
2016,08,26,01,51,17.50
2016,08,26,01,52,17.40
2016,08,26,01,53,17.40
2016,08,26,01,54,17.40
2016,08,26,01,55,17.40
2016,08,26,01,56,17.40
2016,08,26,01,57,17.30
2016,08,26,01,58,17.30
2016,08,26,01,59,17.30
2016,08,26,02,00,17.30
2016,08,26,02,01,17.30
2016,08,26,02,02,17.30
2016,08,26,02,03,17.30
2016,08,26,02,04,17.30
2016,08,26,02,05,17.20
2016,08,26,02,06,17.20
2016,08,26,02,07,17.20
2016,08,26,02,08,17.20
2016,08,26,02,09,17.20
2016,08,26,02,10,17.10
2016,08,26,02,11,17.10
2016,08,26,02,12,17.10
2016,08,26,02,13,17.10
2016,08,26,02,14,17.10
2016,08,26,02,15,16.90
2016,08,26,02,16,16.90
2016,08,26,02,17,16.80
2016,08,26,02,18,16.80
2016,08,26,02,19,16.80
2016,08,26,02,20,16.80
2016,08,26,02,21,16.70
2016,08,26,02,22,16.70
2016,08,26,02,23,16.70
2016,08,26,02,24,16.70
2016,08,26,02,25,16.70
2016,08,26,02,26,16.70
2016,08,26,02,27,16.70
2016,08,26,02,28,16.60
2016,08,26,02,29,16.60
2016,08,26,02,30,16.60
2016,08,26,02,31,16.60
2016,08,26,02,32,16.60
2016,08,26,02,33,16.60
2016,08,26,02,34,16.60
2016,08,26,02,35,16.60
2016,08,26,02,36,16.50
2016,08,26,02,37,16.50
2016,08,26,02,38,16.50
2016,08,26,02,39,16.40
2016,08,26,02,40,16.40
2016,08,26,02,41,16.30
2016,08,26,02,42,16.30
2016,08,26,02,43,16.30
2016,08,26,02,44,16.30
2016,08,26,02,45,16.30
2016,08,26,02,46,16.30
2016,08,26,02,47,16.30
2016,08,26,02,48,16.30
2016,08,26,02,49,16.30
2016,08,26,02,50,16.30
2016,08,26,02,51,16.30
2016,08,26,02,52,16.30
2016,08,26,02,53,16.30
2016,08,26,02,54,16.30
2016,08,26,02,55,16.30
2016,08,26,02,56,16.30
2016,08,26,02,57,16.30
2016,08,26,02,58,16.30
2016,08,26,02,59,16.30
2016,08,26,03,00,16.20
2016,08,26,03,01,16.20
2016,08,26,03,02,16.20
2016,08,26,03,03,16.20
2016,08,26,03,04,16.20
2016,08,26,03,05,16.20
2016,08,26,03,06,16.10
2016,08,26,03,07,16.10
2016,08,26,03,08,16.10
2016,08,26,03,09,16.10
2016,08,26,03,10,16.00
2016,08,26,03,11,16.00
2016,08,26,03,12,15.90
2016,08,26,03,13,15.90
2016,08,26,03,14,15.90
2016,08,26,03,15,15.80
2016,08,26,03,16,15.80
2016,08,26,03,17,15.80
2016,08,26,03,18,15.80
2016,08,26,03,19,15.80
2016,08,26,03,20,15.70
2016,08,26,03,21,15.70
2016,08,26,03,22,15.70
2016,08,26,03,23,15.70
2016,08,26,03,24,15.70
2016,08,26,03,25,15.60
2016,08,26,03,26,15.60
2016,08,26,03,27,15.60
2016,08,26,03,28,15.60
2016,08,26,03,29,15.60
2016,08,26,03,30,15.50
2016,08,26,03,31,15.50
2016,08,26,03,32,15.50
2016,08,26,03,33,15.50
2016,08,26,03,34,15.40
2016,08,26,03,35,15.40
2016,08,26,03,36,15.40
2016,08,26,03,37,15.40
2016,08,26,03,38,15.50
2016,08,26,03,39,15.50
2016,08,26,03,40,15.50
2016,08,26,03,41,15.50
2016,08,26,03,42,15.50
2016,08,26,03,43,15.50
2016,08,26,03,44,15.50
2016,08,26,03,45,15.40
2016,08,26,03,46,15.40
2016,08,26,03,47,15.40
2016,08,26,03,48,15.40
2016,08,26,03,49,15.40
2016,08,26,03,50,15.40
2016,08,26,03,51,15.40
2016,08,26,03,52,15.40
2016,08,26,03,53,15.40
2016,08,26,03,54,15.40
2016,08,26,03,55,15.40
2016,08,26,03,56,15.40
2016,08,26,03,57,15.40
2016,08,26,03,58,15.30
2016,08,26,03,59,15.30
2016,08,26,04,00,15.30
2016,08,26,04,01,15.30
2016,08,26,04,02,15.30
2016,08,26,04,03,15.30
2016,08,26,04,04,15.20
2016,08,26,04,05,15.20
2016,08,26,04,06,15.20
2016,08,26,04,07,15.20
2016,08,26,04,08,15.10
2016,08,26,04,09,15.10
2016,08,26,04,10,15.10
2016,08,26,04,11,15.00
2016,08,26,04,12,15.00
2016,08,26,04,13,15.00
2016,08,26,04,14,15.00
2016,08,26,04,15,15.00
2016,08,26,04,16,15.00
2016,08,26,04,17,15.00
2016,08,26,04,18,15.00
2016,08,26,04,19,15.00
2016,08,26,04,20,15.00
2016,08,26,04,21,15.00
2016,08,26,04,22,15.00
2016,08,26,04,23,15.00
2016,08,26,04,24,15.00
2016,08,26,04,25,15.00
2016,08,26,04,26,15.00
2016,08,26,04,27,15.00
2016,08,26,04,28,15.00
2016,08,26,04,29,15.00
2016,08,26,04,30,15.00
2016,08,26,04,31,15.00
2016,08,26,04,32,15.00
2016,08,26,04,33,15.00
2016,08,26,04,34,15.00
2016,08,26,04,35,15.00
2016,08,26,04,36,14.90
2016,08,26,04,37,14.90
2016,08,26,04,38,14.90
2016,08,26,04,39,14.90
2016,08,26,04,40,14.90
2016,08,26,04,41,14.90
2016,08,26,04,42,14.90
2016,08,26,04,43,14.80
2016,08,26,04,44,14.80
2016,08,26,04,45,14.80
2016,08,26,04,46,14.80
2016,08,26,04,47,14.80
2016,08,26,04,48,14.80
2016,08,26,04,49,14.80
2016,08,26,04,50,14.80
2016,08,26,04,51,14.80
2016,08,26,04,52,14.80
2016,08,26,04,53,14.70
2016,08,26,04,54,14.70
2016,08,26,04,55,14.70
2016,08,26,04,56,14.70
2016,08,26,04,57,14.60
2016,08,26,04,58,14.60
2016,08,26,04,59,14.60
2016,08,26,05,00,14.50
2016,08,26,05,01,14.50
2016,08,26,05,02,14.50
2016,08,26,05,03,14.40
2016,08,26,05,04,14.40
2016,08,26,05,05,14.40
2016,08,26,05,06,14.40
2016,08,26,05,07,14.40
2016,08,26,05,08,14.40
2016,08,26,05,09,14.40
2016,08,26,05,10,14.40
2016,08,26,05,11,14.40
2016,08,26,05,12,14.40
2016,08,26,05,13,14.40
2016,08,26,05,14,14.40
2016,08,26,05,15,14.40
2016,08,26,05,16,14.40
2016,08,26,05,17,14.40
2016,08,26,05,18,14.40
2016,08,26,05,19,14.40
2016,08,26,05,20,14.40
2016,08,26,05,21,14.40
2016,08,26,05,22,14.30
2016,08,26,05,23,14.30
2016,08,26,05,24,14.30
2016,08,26,05,25,14.30
2016,08,26,05,26,14.30
2016,08,26,05,27,14.30
2016,08,26,05,28,14.30
2016,08,26,05,29,14.20
2016,08,26,05,30,14.20
2016,08,26,05,31,14.20
2016,08,26,05,32,14.10
2016,08,26,05,33,14.10
2016,08,26,05,34,14.10
2016,08,26,05,35,14.10
2016,08,26,05,36,14.10
2016,08,26,05,37,14.10
2016,08,26,05,38,14.10
2016,08,26,05,39,14.10
2016,08,26,05,40,14.10
2016,08,26,05,41,14.00
2016,08,26,05,42,14.00
2016,08,26,05,43,14.00
2016,08,26,05,44,14.00
2016,08,26,05,45,14.00
2016,08,26,05,46,14.00
2016,08,26,05,47,13.90
2016,08,26,05,48,13.90
2016,08,26,05,49,13.90
2016,08,26,05,50,13.90
2016,08,26,05,51,13.90
2016,08,26,05,52,13.90
2016,08,26,05,53,13.90
2016,08,26,05,54,13.90
2016,08,26,05,55,13.90
2016,08,26,05,56,13.90
2016,08,26,05,57,13.90
2016,08,26,05,58,13.90
2016,08,26,05,59,13.90
2016,08,26,06,00,13.90
2016,08,26,06,01,13.90
2016,08,26,06,02,13.90
2016,08,26,06,03,13.90
2016,08,26,06,04,13.80
2016,08,26,06,05,13.80
2016,08,26,06,06,13.80
2016,08,26,06,07,13.80
2016,08,26,06,08,13.80
2016,08,26,06,09,13.80
2016,08,26,06,10,13.80
2016,08,26,06,11,13.80
2016,08,26,06,12,13.80
2016,08,26,06,13,13.80
2016,08,26,06,14,13.90
2016,08,26,06,15,13.90
2016,08,26,06,16,13.90
2016,08,26,06,17,13.90
2016,08,26,06,18,13.90
2016,08,26,06,19,13.90
2016,08,26,06,20,13.90
2016,08,26,06,21,13.90
2016,08,26,06,22,13.90
2016,08,26,06,23,13.90
2016,08,26,06,24,13.90
2016,08,26,06,25,13.90
2016,08,26,06,26,13.80
2016,08,26,06,27,13.80
2016,08,26,06,28,13.80
2016,08,26,06,29,13.80
2016,08,26,06,30,13.80
2016,08,26,06,31,13.80
2016,08,26,06,32,13.80
2016,08,26,06,33,13.70
2016,08,26,06,34,13.70
2016,08,26,06,35,13.70
2016,08,26,06,36,13.70
2016,08,26,06,37,13.70
2016,08,26,06,38,13.70
2016,08,26,06,39,13.70
2016,08,26,06,40,13.70
2016,08,26,06,41,13.70
2016,08,26,06,42,13.60
2016,08,26,06,43,13.60
2016,08,26,06,44,13.60
2016,08,26,06,45,13.60
2016,08,26,06,46,13.60
2016,08,26,06,47,13.60
2016,08,26,06,48,13.60
2016,08,26,06,49,13.50
2016,08,26,06,50,13.60
2016,08,26,06,51,13.50
2016,08,26,06,52,13.50
2016,08,26,06,53,13.50
2016,08,26,06,54,13.50
2016,08,26,06,55,13.50
2016,08,26,06,56,13.50
2016,08,26,06,57,13.50
2016,08,26,06,58,13.50
2016,08,26,06,59,13.50
2016,08,26,07,00,13.40
2016,08,26,07,01,13.40
2016,08,26,07,02,13.40
2016,08,26,07,03,13.40
2016,08,26,07,04,13.40
2016,08,26,07,05,13.50
2016,08,26,07,06,13.50
2016,08,26,07,07,13.50
2016,08,26,07,08,13.50
2016,08,26,07,09,13.50
2016,08,26,07,10,13.60
2016,08,26,07,11,13.60
2016,08,26,07,12,13.60
2016,08,26,07,13,13.60
2016,08,26,07,14,13.60
2016,08,26,07,15,13.60
2016,08,26,07,16,13.60
2016,08,26,07,17,13.60
2016,08,26,07,18,13.60
2016,08,26,07,19,13.50
2016,08,26,07,20,13.50
2016,08,26,07,21,13.50
2016,08,26,07,22,13.50
2016,08,26,07,23,13.60
2016,08,26,07,24,13.60
2016,08,26,07,25,13.60
2016,08,26,07,26,13.60
2016,08,26,07,27,13.60
2016,08,26,07,28,13.60
2016,08,26,07,29,13.70
2016,08,26,07,30,13.70
2016,08,26,07,31,13.70
2016,08,26,07,32,13.80
2016,08,26,07,33,13.80
2016,08,26,07,34,13.80
2016,08,26,07,35,13.80
2016,08,26,07,36,13.90
2016,08,26,07,37,13.90
2016,08,26,07,38,13.90
2016,08,26,07,39,13.90
2016,08,26,07,40,14.00
2016,08,26,07,41,14.00
2016,08,26,07,42,14.10
2016,08,26,07,43,14.10
2016,08,26,07,44,14.10
2016,08,26,07,45,14.20
2016,08,26,07,46,14.20
2016,08,26,07,47,14.20
2016,08,26,07,48,14.30
2016,08,26,07,49,14.30
2016,08,26,07,50,14.30
2016,08,26,07,51,14.30
2016,08,26,07,52,14.30
2016,08,26,07,53,14.30
2016,08,26,07,54,14.30
2016,08,26,07,55,14.30
2016,08,26,07,56,14.30
2016,08,26,07,57,14.30
2016,08,26,07,58,14.40
2016,08,26,07,59,14.40
2016,08,26,08,00,14.40
2016,08,26,08,01,14.50
2016,08,26,08,02,14.50
2016,08,26,08,03,14.60
2016,08,26,08,04,14.60
2016,08,26,08,05,14.60
2016,08,26,08,06,14.60
2016,08,26,08,07,14.70
2016,08,26,08,08,14.70
2016,08,26,08,09,14.70
2016,08,26,08,10,14.80
2016,08,26,08,11,14.80
2016,08,26,08,12,14.80
2016,08,26,08,13,14.90
2016,08,26,08,14,14.90
2016,08,26,08,15,15.00
2016,08,26,08,16,15.10
2016,08,26,08,17,15.10
2016,08,26,08,18,15.20
2016,08,26,08,19,15.30
2016,08,26,08,20,15.40
2016,08,26,08,21,15.40
2016,08,26,08,22,15.50
2016,08,26,08,23,15.60
2016,08,26,08,24,15.70
2016,08,26,08,25,15.80
2016,08,26,08,26,15.90
2016,08,26,08,27,16.00
2016,08,26,08,28,16.10
2016,08,26,08,29,16.20
2016,08,26,08,30,16.20
2016,08,26,08,31,16.30
2016,08,26,08,32,16.40
2016,08,26,08,33,16.50
2016,08,26,08,34,16.60
2016,08,26,08,35,16.60
2016,08,26,08,36,16.70
2016,08,26,08,37,16.70
2016,08,26,08,38,16.80
2016,08,26,08,39,16.90
2016,08,26,08,40,17.00
2016,08,26,08,41,17.00
2016,08,26,08,42,17.10
2016,08,26,08,43,17.20
2016,08,26,08,44,17.20
2016,08,26,08,45,17.30
2016,08,26,08,46,17.30
2016,08,26,08,47,17.30
2016,08,26,08,48,17.40
2016,08,26,08,49,17.40
2016,08,26,08,50,17.50
2016,08,26,08,51,17.60
2016,08,26,08,52,17.70
2016,08,26,08,53,17.80
2016,08,26,08,54,17.90
2016,08,26,08,55,18.00
2016,08,26,08,56,18.10
2016,08,26,08,57,18.30
2016,08,26,08,58,18.40
2016,08,26,08,59,18.50
2016,08,26,09,00,18.60
2016,08,26,09,01,18.70
2016,08,26,09,02,18.80
2016,08,26,09,03,18.80
2016,08,26,09,04,18.90
2016,08,26,09,05,18.90
2016,08,26,09,06,18.90
2016,08,26,09,07,19.00
2016,08,26,09,08,19.00
2016,08,26,09,09,19.10
2016,08,26,09,10,19.10
2016,08,26,09,11,19.10
2016,08,26,09,12,19.20
2016,08,26,09,13,19.20
2016,08,26,09,14,19.30
2016,08,26,09,15,19.30
2016,08,26,09,16,19.30
2016,08,26,09,17,19.40
2016,08,26,09,18,19.40
2016,08,26,09,19,19.40
2016,08,26,09,20,19.40
2016,08,26,09,21,19.50
2016,08,26,09,22,19.60
2016,08,26,09,23,19.70
2016,08,26,09,24,19.70
2016,08,26,09,25,19.80
2016,08,26,09,26,19.80
2016,08,26,09,27,19.80
2016,08,26,09,28,19.90
2016,08,26,09,29,19.90
2016,08,26,09,30,20.00
2016,08,26,09,31,20.10
2016,08,26,09,32,20.20
2016,08,26,09,33,20.30
2016,08,26,09,34,20.40
2016,08,26,09,35,20.50
2016,08,26,09,36,20.60
2016,08,26,09,37,20.70
2016,08,26,09,38,20.80
2016,08,26,09,39,20.80
2016,08,26,09,40,20.90
2016,08,26,09,41,20.90
2016,08,26,09,42,20.90
2016,08,26,09,43,20.90
2016,08,26,09,44,20.90
2016,08,26,09,45,21.00
2016,08,26,09,46,21.00
2016,08,26,09,47,21.10
2016,08,26,09,48,21.10
2016,08,26,09,49,21.10
2016,08,26,09,50,21.10
2016,08,26,09,51,21.20
2016,08,26,09,52,21.30
2016,08,26,09,53,21.40
2016,08,26,09,54,21.50
2016,08,26,09,55,21.70
2016,08,26,09,56,21.80
2016,08,26,09,57,22.00
2016,08,26,09,58,22.10
2016,08,26,09,59,22.30
2016,08,26,10,00,22.40
2016,08,26,10,01,22.60
2016,08,26,10,02,22.70
2016,08,26,10,03,22.80
2016,08,26,10,04,22.80
2016,08,26,10,05,22.80
2016,08,26,10,06,22.80
2016,08,26,10,07,22.90
2016,08,26,10,08,23.00
2016,08,26,10,09,23.20
2016,08,26,10,10,23.30
2016,08,26,10,11,23.40
2016,08,26,10,12,23.50
2016,08,26,10,13,23.60
2016,08,26,10,14,23.60
2016,08,26,10,15,23.70
2016,08,26,10,16,23.70
2016,08,26,10,17,23.80
2016,08,26,10,18,23.80
2016,08,26,10,19,23.80
2016,08,26,10,20,23.80
2016,08,26,10,21,23.70
2016,08,26,10,22,23.70
2016,08,26,10,23,23.80
2016,08,26,10,24,23.80
2016,08,26,10,25,23.80
2016,08,26,10,26,23.80
2016,08,26,10,27,23.80
2016,08,26,10,28,23.90
2016,08,26,10,29,23.90
2016,08,26,10,30,23.90
2016,08,26,10,31,24.00
2016,08,26,10,32,24.10
2016,08,26,10,33,24.10
2016,08,26,10,34,24.20
2016,08,26,10,35,24.30
2016,08,26,10,36,24.50
2016,08,26,10,37,24.60
2016,08,26,10,38,24.70
2016,08,26,10,39,24.80
2016,08,26,10,40,24.90
2016,08,26,10,41,25.00
2016,08,26,10,42,25.10
2016,08,26,10,43,25.20
2016,08,26,10,44,25.20
2016,08,26,10,45,25.30
2016,08,26,10,46,25.30
2016,08,26,10,47,25.40
2016,08,26,10,48,25.40
2016,08,26,10,49,25.50
2016,08,26,10,50,25.60
2016,08,26,10,51,25.70
2016,08,26,10,52,25.80
2016,08,26,10,53,25.90
2016,08,26,10,54,26.00
2016,08,26,10,55,26.10
2016,08,26,10,56,26.10
2016,08,26,10,57,26.20
2016,08,26,10,58,26.20
2016,08,26,10,59,26.20
2016,08,26,11,00,26.20
2016,08,26,11,01,26.30
2016,08,26,11,02,26.30
2016,08,26,11,03,26.30
2016,08,26,11,04,26.20
2016,08,26,11,05,26.20
2016,08,26,11,06,26.10
2016,08,26,11,07,26.10
2016,08,26,11,08,26.10
2016,08,26,11,09,26.10
2016,08,26,11,10,26.10
2016,08,26,11,11,26.20
2016,08,26,11,12,26.20
2016,08,26,11,13,26.30
2016,08,26,11,14,26.30
2016,08,26,11,15,26.30
2016,08,26,11,16,26.30
2016,08,26,11,17,26.30
2016,08,26,11,18,26.40
2016,08,26,11,19,26.40
2016,08,26,11,20,26.40
2016,08,26,11,21,26.50
2016,08,26,11,22,26.50
2016,08,26,11,23,26.60
2016,08,26,11,24,26.70
2016,08,26,11,25,26.80
2016,08,26,11,26,26.90
2016,08,26,11,27,26.90
2016,08,26,11,28,26.90
2016,08,26,11,29,26.90
2016,08,26,11,30,26.90
2016,08,26,11,31,26.90
2016,08,26,11,32,26.90
2016,08,26,11,33,26.90
2016,08,26,11,34,26.90
2016,08,26,11,35,26.90
2016,08,26,11,36,26.90
2016,08,26,11,37,26.90
2016,08,26,11,38,27.00
2016,08,26,11,39,27.00
2016,08,26,11,40,27.00
2016,08,26,11,41,27.00
2016,08,26,11,42,27.00
2016,08,26,11,43,27.00
2016,08,26,11,44,27.00
2016,08,26,11,45,27.10
2016,08,26,11,46,27.10
2016,08,26,11,47,27.20
2016,08,26,11,48,27.30
2016,08,26,11,49,27.40
2016,08,26,11,50,27.50
2016,08,26,11,51,27.60
2016,08,26,11,52,27.60
2016,08,26,11,53,27.70
2016,08,26,11,54,27.80
2016,08,26,11,55,28.00
2016,08,26,11,56,28.20
2016,08,26,11,57,28.30
2016,08,26,11,58,28.50
2016,08,26,11,59,28.60
2016,08,26,12,00,28.70
2016,08,26,12,01,28.80
2016,08,26,12,02,28.80
2016,08,26,12,03,28.90
2016,08,26,12,04,28.90
2016,08,26,12,05,28.90
2016,08,26,12,06,28.80
2016,08,26,12,07,28.80
2016,08,26,12,08,28.80
2016,08,26,12,09,28.80
2016,08,26,12,10,28.80
2016,08,26,12,11,28.90
2016,08,26,12,12,28.90
2016,08,26,12,13,29.00
2016,08,26,12,14,29.10
2016,08,26,12,15,29.10
2016,08,26,12,16,29.20
2016,08,26,12,17,29.30
2016,08,26,12,18,29.50
2016,08,26,12,19,29.60
2016,08,26,12,20,29.70
2016,08,26,12,21,29.70
2016,08,26,12,22,29.70
2016,08,26,12,23,29.70
2016,08,26,12,24,29.70
2016,08,26,12,25,29.70
2016,08,26,12,26,29.70
2016,08,26,12,27,29.70
2016,08,26,12,28,29.80
2016,08,26,12,29,29.80
2016,08,26,12,30,29.90
2016,08,26,12,31,29.90
2016,08,26,12,32,29.90
2016,08,26,12,33,29.90
2016,08,26,12,34,29.90
2016,08,26,12,35,29.90
2016,08,26,12,36,29.90
2016,08,26,12,37,29.90
2016,08,26,12,38,29.90
2016,08,26,12,39,30.20
2016,08,26,12,40,30.50
2016,08,26,12,41,30.60
2016,08,26,12,42,30.70
2016,08,26,12,43,30.80
2016,08,26,12,44,30.80
2016,08,26,12,45,30.90
2016,08,26,12,46,30.90
2016,08,26,12,47,31.00
2016,08,26,12,48,31.00
2016,08,26,12,49,31.20
2016,08,26,12,50,31.30
2016,08,26,12,51,31.40
2016,08,26,12,52,31.40
2016,08,26,12,53,31.50
2016,08,26,12,54,31.50
2016,08,26,12,55,31.50
2016,08,26,12,56,31.50
2016,08,26,12,57,31.40
2016,08,26,12,58,31.40
2016,08,26,12,59,31.40
2016,08,26,13,00,31.40
2016,08,26,13,01,31.40
2016,08,26,13,02,31.50
2016,08,26,13,03,31.50
2016,08,26,13,04,31.60
2016,08,26,13,05,31.60
2016,08,26,13,06,31.60
2016,08,26,13,07,31.60
2016,08,26,13,08,31.60
2016,08,26,13,09,31.70
2016,08,26,13,10,31.80
2016,08,26,13,11,31.80
2016,08,26,13,12,31.80
2016,08,26,13,13,31.70
2016,08,26,13,14,31.70
2016,08,26,13,15,31.70
2016,08,26,13,16,31.70
2016,08,26,13,17,31.70
2016,08,26,13,18,31.80
2016,08,26,13,19,31.80
2016,08,26,13,20,31.80
2016,08,26,13,21,31.80
2016,08,26,13,22,31.90
2016,08,26,13,23,32.00
2016,08,26,13,24,32.10
2016,08,26,13,25,32.10
2016,08,26,13,26,32.20
2016,08,26,13,27,32.20
2016,08,26,13,28,32.10
2016,08,26,13,29,32.20
2016,08,26,13,30,32.20
2016,08,26,13,31,32.20
2016,08,26,13,32,32.20
2016,08,26,13,33,32.20
2016,08,26,13,34,32.30
2016,08,26,13,35,32.40
2016,08,26,13,36,32.50
2016,08,26,13,37,32.50
2016,08,26,13,38,32.60
2016,08,26,13,39,32.70
2016,08,26,13,40,32.70
2016,08,26,13,41,32.70
2016,08,26,13,42,32.60
2016,08,26,13,43,32.60
2016,08,26,13,44,32.60
2016,08,26,13,45,32.70
2016,08,26,13,46,32.70
2016,08,26,13,47,32.80
2016,08,26,13,48,32.90
2016,08,26,13,49,32.90
2016,08,26,13,50,33.00
2016,08,26,13,51,33.10
2016,08,26,13,52,33.10
2016,08,26,13,53,33.10
2016,08,26,13,54,33.10
2016,08,26,13,55,33.20
2016,08,26,13,56,33.20
2016,08,26,13,57,33.30
2016,08,26,13,58,33.30
2016,08,26,13,59,33.30
2016,08,26,14,00,33.30
2016,08,26,14,01,33.30
2016,08,26,14,02,33.30
2016,08,26,14,03,33.30
2016,08,26,14,04,33.30
2016,08,26,14,05,33.40
2016,08,26,14,06,33.40
2016,08,26,14,07,33.50
2016,08,26,14,08,33.50
2016,08,26,14,09,33.60
2016,08,26,14,10,33.60
2016,08,26,14,11,33.70
2016,08,26,14,12,33.70
2016,08,26,14,13,33.80
2016,08,26,14,14,33.80
2016,08,26,14,15,33.80
2016,08,26,14,16,33.70
2016,08,26,14,17,33.70
2016,08,26,14,18,33.70
2016,08,26,14,19,33.80
2016,08,26,14,20,33.70
2016,08,26,14,21,33.60
2016,08,26,14,22,33.60
2016,08,26,14,23,33.60
2016,08,26,14,24,33.70
2016,08,26,14,25,33.70
2016,08,26,14,26,33.80
2016,08,26,14,27,33.80
2016,08,26,14,28,33.70
2016,08,26,14,29,33.60
2016,08,26,14,30,33.50
2016,08,26,14,31,33.40
2016,08,26,14,32,33.30
2016,08,26,14,33,33.30
2016,08,26,14,34,33.20
2016,08,26,14,35,33.20
2016,08,26,14,36,33.20
2016,08,26,14,37,33.30
2016,08,26,14,38,33.30
2016,08,26,14,39,33.40
2016,08,26,14,40,33.50
2016,08,26,14,41,33.60
2016,08,26,14,42,33.70
2016,08,26,14,43,33.70
2016,08,26,14,44,33.70
2016,08,26,14,45,33.80
2016,08,26,14,46,33.80
2016,08,26,14,47,33.70
2016,08,26,14,48,33.70
2016,08,26,14,49,33.60
2016,08,26,14,50,33.50
2016,08,26,14,51,33.40
2016,08,26,14,52,33.40
2016,08,26,14,53,33.40
2016,08,26,14,54,33.50
2016,08,26,14,55,33.60
2016,08,26,14,56,33.80
2016,08,26,14,57,33.90
2016,08,26,14,58,34.00
2016,08,26,14,59,34.10
2016,08,26,15,00,34.20
2016,08,26,15,01,34.20
2016,08,26,15,02,34.20
2016,08,26,15,03,34.20
2016,08,26,15,04,34.30
2016,08,26,15,05,34.20
2016,08,26,15,06,34.20
2016,08,26,15,07,34.20
2016,08,26,15,08,34.20
2016,08,26,15,09,34.20
2016,08,26,15,10,34.30
2016,08,26,15,11,34.30
2016,08,26,15,12,34.30
2016,08,26,15,13,34.30
2016,08,26,15,14,34.20
2016,08,26,15,15,34.20
2016,08,26,15,16,34.10
2016,08,26,15,17,34.10
2016,08,26,15,18,34.10
2016,08,26,15,19,34.20
2016,08,26,15,20,34.20
2016,08,26,15,21,34.30
2016,08,26,15,22,34.20
2016,08,26,15,23,34.20
2016,08,26,15,24,34.20
2016,08,26,15,25,34.20
2016,08,26,15,26,34.20
2016,08,26,15,27,34.20
2016,08,26,15,28,34.20
2016,08,26,15,29,34.10
2016,08,26,15,30,34.10
2016,08,26,15,31,34.20
2016,08,26,15,32,34.20
2016,08,26,15,33,34.20
2016,08,26,15,34,34.30
2016,08,26,15,35,34.30
2016,08,26,15,36,34.30
2016,08,26,15,37,34.30
2016,08,26,15,38,34.30
2016,08,26,15,39,34.20
2016,08,26,15,40,34.10
2016,08,26,15,41,34.10
2016,08,26,15,42,34.10
2016,08,26,15,43,34.10
2016,08,26,15,44,34.20
2016,08,26,15,45,34.20
2016,08,26,15,46,34.30
2016,08,26,15,47,34.30
2016,08,26,15,48,34.30
2016,08,26,15,49,34.40
2016,08,26,15,50,34.40
2016,08,26,15,51,34.30
2016,08,26,15,52,34.30
2016,08,26,15,53,34.20
2016,08,26,15,54,34.10
2016,08,26,15,55,34.00
2016,08,26,15,56,33.90
2016,08,26,15,57,33.80
2016,08,26,15,58,33.80
2016,08,26,15,59,33.80
2016,08,26,16,00,33.80
2016,08,26,16,01,33.80
2016,08,26,16,02,33.90
2016,08,26,16,03,33.90
2016,08,26,16,04,34.00
2016,08,26,16,05,34.00
2016,08,26,16,06,34.10
2016,08,26,16,07,34.00
2016,08,26,16,08,34.00
2016,08,26,16,09,34.00
2016,08,26,16,10,34.00
2016,08,26,16,11,33.90
2016,08,26,16,12,33.90
2016,08,26,16,13,33.90
2016,08,26,16,14,33.90
2016,08,26,16,15,33.90
2016,08,26,16,16,34.00
2016,08,26,16,17,34.10
2016,08,26,16,18,34.20
2016,08,26,16,19,34.20
2016,08,26,16,20,34.10
2016,08,26,16,21,34.10
2016,08,26,16,22,34.00
2016,08,26,16,23,34.00
2016,08,26,16,24,34.00
2016,08,26,16,25,34.00
2016,08,26,16,26,34.00
2016,08,26,16,27,34.10
2016,08,26,16,28,34.10
2016,08,26,16,29,34.00
2016,08,26,16,30,33.90
2016,08,26,16,31,33.90
2016,08,26,16,32,33.90
2016,08,26,16,33,33.90
2016,08,26,16,34,33.90
2016,08,26,16,35,33.90
2016,08,26,16,36,33.90
2016,08,26,16,37,33.90
2016,08,26,16,38,33.90
2016,08,26,16,39,33.90
2016,08,26,16,40,34.00
2016,08,26,16,41,34.10
2016,08,26,16,42,34.10
2016,08,26,16,43,34.00
2016,08,26,16,44,33.90
2016,08,26,16,45,33.90
2016,08,26,16,46,33.80
2016,08,26,16,47,33.80
2016,08,26,16,48,33.80
2016,08,26,16,49,33.80
2016,08,26,16,50,33.80
2016,08,26,16,51,33.80
2016,08,26,16,52,33.70
2016,08,26,16,53,33.60
2016,08,26,16,54,33.40
2016,08,26,16,55,33.20
2016,08,26,16,56,33.00
2016,08,26,16,57,32.90
2016,08,26,16,58,32.80
2016,08,26,16,59,32.80
2016,08,26,17,00,32.80
2016,08,26,17,01,32.80
2016,08,26,17,02,32.80
2016,08,26,17,03,32.80
2016,08,26,17,04,32.70
2016,08,26,17,05,32.70
2016,08,26,17,06,32.60
2016,08,26,17,07,32.50
2016,08,26,17,08,32.50
2016,08,26,17,09,32.40
2016,08,26,17,10,32.40
2016,08,26,17,11,32.30
2016,08,26,17,12,32.30
2016,08,26,17,13,32.30
2016,08,26,17,14,32.30
2016,08,26,17,15,32.40
2016,08,26,17,16,32.40
2016,08,26,17,17,32.40
2016,08,26,17,18,32.40
2016,08,26,17,19,32.30